This is the latest recevied weather packets stored in our database for station/object K7PMV-13. If no packets are shown the sender has not sent any weather packets the latest 10 day(s).
| Time | Temp. | Humidity | Pressure | Rain* | Wind** | Luminosity | Snow |
|---|---|---|---|---|---|---|---|
| 1777914236 | 24.44° C | 34% | 1008.6 hPa | 0 mm | - | 506 W/m² | - |
| 1777913899 | 24.44° C | 35% | 1008.6 hPa | 0 mm | - | 538 W/m² | - |
| 1777913572 | 24.44° C | 35% | 1008.7 hPa | 0 mm | - | 396 W/m² | - |
| 1777913239 | 24.44° C | 35% | 1008.8 hPa | 0 mm | - | 448 W/m² | - |
| 1777912609 | 24.44° C | 34% | 1008.5 hPa | 0 mm | - | 485 W/m² | - |
| 1777912289 | 24.44° C | 35% | 1008.3 hPa | 0 mm | - | 436 W/m² | - |
| 1777911974 | 23.89° C | 35% | 1008.2 hPa | 0 mm | - | 394 W/m² | - |
| 1777911654 | 23.89° C | 37% | 1008.3 hPa | 0 mm | - | 378 W/m² | - |
| 1777911337 | 23.89° C | 37% | 1008.5 hPa | 0 mm | - | 501 W/m² | - |
| 1777911021 | 23.89° C | 38% | 1008.3 hPa | 0 mm | - | 483 W/m² | - |
| 1777910694 | 23.89° C | 37% | 1008.2 hPa | 0 mm | - | 362 W/m² | - |
| 1777910375 | 23.33° C | 37% | 1008.2 hPa | 0 mm | - | 378 W/m² | - |
| 1777910052 | 23.33° C | 38% | 1008.2 hPa | 0 mm | - | 388 W/m² | - |
| 1777909720 | 23.33° C | 39% | 1008.3 hPa | 0 mm | - | 359 W/m² | - |
| 1777909405 | 23.33° C | 38% | 1008.4 hPa | 0 mm | - | 309 W/m² | - |
| 1777909088 | 23.33° C | 38% | 1008.5 hPa | 0 mm | - | 288 W/m² | - |
| 1777908761 | 23.33° C | 38% | 1008.3 hPa | 0 mm | - | 279 W/m² | - |
| 1777908446 | 22.78° C | 38% | 1008.1 hPa | 0 mm | - | 243 W/m² | - |
| 1777908129 | 22.78° C | 39% | 1008 hPa | 0 mm | - | 250 W/m² | - |
| 1777907801 | 22.78° C | 38% | 1007.9 hPa | 0 mm | - | 285 W/m² | - |
| 1777907479 | 22.78° C | 38% | 1008 hPa | 0 mm | - | 237 W/m² | - |
| 1777907165 | 22.78° C | 37% | 1007.8 hPa | 0 mm | - | 225 W/m² | - |
| 1777906843 | 22.78° C | 41% | 1007.7 hPa | 0 mm | - | 213 W/m² | - |
| 1777906526 | 22.22° C | 43% | 1007.7 hPa | 0 mm | - | 188 W/m² | - |
| 1777906208 | 22.22° C | 46% | 1007.7 hPa | 0 mm | - | 174 W/m² | - |
* Rain latest hour (hover to see other rain measurements)
** Current wind speed in m/s (hover to see current wind gust speed)